This is the latest recevied weather packets stored in our database for station/object KC0RPY. If no packets are shown the sender has not sent any weather packets the latest 1 day(s).
| Time | Temp. | Humidity | Pressure | Rain* | Wind** | Luminosity | Snow |
|---|---|---|---|---|---|---|---|
| 1836274784 | 21.67° C | 70% | 1017.7 hPa | 0 mm | 0.45 m/s, 111° | 0 W/m² | - |
| 1836274482 | 21.67° C | 70% | 1017.3 hPa | 0 mm | 0.45 m/s, 132° | 0 W/m² | - |
| 1836274336 | 21.67° C | 71% | 1017.3 hPa | 0 mm | 0.45 m/s, 131° | 0 W/m² | - |
| 1836274180 | 21.67° C | 70% | 1017.7 hPa | 0 mm | 0.45 m/s, 117° | 0 W/m² | - |
| 1836273874 | 21.11° C | 71% | 1017.7 hPa | 0 mm | 0.45 m/s, 131° | 0 W/m² | - |
| 1778050897 | 7.22° C | 87% | 1015.7 hPa | 0 mm | 0.45 m/s, 115° | 0 W/m² | - |
| 1778050595 | 7.22° C | 88% | 1016 hPa | 0 mm | 0.45 m/s, 126° | 0 W/m² | - |
| 1778050291 | 7.22° C | 89% | 1016 hPa | 0 mm | 0.45 m/s, 113° | 0 W/m² | - |
| 1778049989 | 7.22° C | 88% | 1016 hPa | 0 mm | 0.89 m/s, 119° | 0 W/m² | - |
| 1778049684 | 7.22° C | 87% | 1016.3 hPa | 0 mm | 0.45 m/s, 91° | 0 W/m² | - |
| 1778049382 | 7.78° C | 87% | 1016.3 hPa | 0 mm | 1.34 m/s, 63° | 0 W/m² | - |
| 1778049079 | 7.78° C | 85% | 1016.7 hPa | 0 mm | 1.34 m/s, 81° | 0 W/m² | - |
| 1778048778 | 7.78° C | 84% | 1016.3 hPa | 0 mm | 1.34 m/s, 49° | 0 W/m² | - |
| 1778048474 | 7.78° C | 83% | 1016.3 hPa | 0 mm | 2.24 m/s, 35° | 0 W/m² | - |
| 1778048169 | 7.78° C | 82% | 1016 hPa | 0 mm | 1.79 m/s, 1° | 0 W/m² | - |
| 1778047868 | 8.33° C | 80% | 1016.3 hPa | 0 mm | 2.24 m/s, 62° | 0 W/m² | - |
| 1778047574 | 8.33° C | 80% | 1016.3 hPa | 0 mm | 0.89 m/s, 93° | 0 W/m² | - |
| 1778047257 | 8.33° C | 80% | 1016.7 hPa | 0 mm | 1.79 m/s, 46° | 0 W/m² | - |
| 1778046954 | 8.33° C | 80% | 1016.7 hPa | 0 mm | 1.34 m/s, 44° | 0 W/m² | - |
| 1778046651 | 8.33° C | 78% | 1016.3 hPa | 0 mm | 2.24 m/s, 59° | 0 W/m² | - |
| 1778046348 | 8.33° C | 79% | 1016.3 hPa | 0 mm | 1.79 m/s, 61° | 0 W/m² | - |
| 1778046044 | 8.33° C | 78% | 1016.3 hPa | 0 mm | 1.34 m/s, 45° | 0 W/m² | - |
| 1778045742 | 8.33° C | 78% | 1016 hPa | 0 mm | 0.89 m/s, 64° | 0 W/m² | - |
| 1778045440 | 8.89° C | 77% | 1016 hPa | 0 mm | 1.34 m/s, 31° | 0 W/m² | - |
| 1778045138 | 8.89° C | 75% | 1016 hPa | 0 mm | 1.79 m/s, 69° | 0 W/m² | - |
* Rain latest hour (hover to see other rain measurements)
** Current wind speed in m/s (hover to see current wind gust speed)